| time (UTC) | temp F | wind direction | speed MPH | gust MPH | rain 1hr in | rain 24hr in | rain mn in | humidity % | barometer mb |
| 20260510135129 | 74 | 84 | 0.0 | 0.0 | 0.00 | 0.00 | 0.00 | 28 | 1012.9 |
| 20260510134626 | 73 | 84 | 0.0 | 0.0 | 0.00 | 0.00 | 0.00 | 29 | 1012.8 |
| 20260510134123 | 72 | 84 | 0.0 | 0.0 | 0.00 | 0.00 | 0.00 | 30 | 1012.6 |
| 20260510133620 | 71 | 82 | 0.0 | 0.0 | 0.00 | 0.00 | 0.00 | 31 | 1012.7 |
| 20260510133115 | 70 | 83 | 0.0 | 0.0 | 0.00 | 0.00 | 0.00 | 31 | 1012.4 |
| 20260510132612 | 69 | 83 | 2.0 | 2.0 | 0.00 | 0.00 | 0.00 | 31 | 1012.7 |
| 20260510132109 | 68 | 107 | 0.0 | 0.0 | 0.00 | 0.00 | 0.00 | 31 | 1012.4 |
| 20260510131607 | 67 | 108 | 0.0 | 0.0 | 0.00 | 0.00 | 0.00 | 33 | 1012.6 |
| 20260510131104 | 66 | 108 | 0.0 | 0.0 | 0.00 | 0.00 | 0.00 | 34 | 1012.5 |
| 20260510130600 | 65 | 108 | 0.0 | 0.0 | 0.00 | 0.00 | 0.00 | 34 | 1012.2 |
| 20260510130058 | 64 | 107 | 0.0 | 0.0 | 0.00 | 0.00 | 0.00 | 36 | 1012.2 |
| 20260510125554 | 64 | 109 | 0.0 | 0.0 | 0.00 | 0.00 | 0.00 | 36 | 1012.0 |
| 20260510125050 | 63 | 109 | 0.0 | 0.0 | 0.00 | 0.00 | 0.00 | 35 | 1012.2 |
| 20260510124547 | 63 | 109 | 0.0 | 0.0 | 0.00 | 0.00 | 0.00 | 35 | 1011.9 |
| 20260510124044 | 63 | 105 | 1.0 | 2.0 | 0.00 | 0.00 | 0.00 | 35 | 1012.1 |
| 20260510123539 | 63 | 88 | 0.0 | 0.0 | 0.00 | 0.00 | 0.00 | 35 | 1012.1 |
| 20260510123035 | 63 | 86 | 0.0 | 0.0 | 0.00 | 0.00 | 0.00 | 35 | 1012.0 |
| 20260510122531 | 63 | 83 | 0.0 | 0.0 | 0.00 | 0.00 | 0.00 | 36 | 1011.7 |
| 20260510122027 | 62 | 82 | 1.0 | 1.0 | 0.00 | 0.00 | 0.00 | 36 | 1011.9 |
| 20260510121525 | 63 | 82 | 0.0 | 0.0 | 0.00 | 0.00 | 0.00 | 35 | 1011.8 |
| 20260510121022 | 63 | 82 | 0.0 | 1.0 | 0.00 | 0.00 | 0.00 | 35 | 1011.6 |
| 20260510120519 | 62 | 82 | 0.0 | 1.0 | 0.00 | 0.00 | 0.00 | 37 | 1011.8 |
| 20260510120015 | 63 | 80 | 1.0 | 1.0 | 0.00 | 0.00 | 0.00 | 37 | 1011.7 |
| 20260510115512 | 63 | 86 | 1.0 | 2.0 | 0.00 | 0.00 | 0.00 | 38 | 1011.6 |
| 20260510115008 | 63 | 87 | 0.0 | 0.0 | 0.00 | 0.00 | 0.00 | 37 | 1011.3 |
| 20260510114505 | 63 | 87 | 0.0 | 0.0 | 0.00 | 0.00 | 0.00 | 36 | 1011.5 |
| 20260510114001 | 63 | 87 | 0.0 | 0.0 | 0.00 | 0.00 | 0.00 | 37 | 1011.4 |
| 20260510113456 | 64 | 87 | 0.0 | 0.0 | 0.00 | 0.00 | 0.00 | 37 | 1011.4 |
| 20260510112954 | 64 | 88 | 0.0 | 0.0 | 0.00 | 0.00 | 0.00 | 36 | 1011.5 |
| 20260510112451 | 64 | 88 | 0.0 | 0.0 | 0.00 | 0.00 | 0.00 | 36 | 1011.4 |
| 20260510111947 | 63 | 88 | 0.0 | 0.0 | 0.00 | 0.00 | 0.00 | 38 | 1011.4 |
| 20260510111443 | 63 | 88 | 0.0 | 0.0 | 0.00 | 0.00 | 0.00 | 37 | 1011.2 |
| 20260510110940 | 64 | 87 | 0.0 | 0.0 | 0.00 | 0.00 | 0.00 | 37 | 1011.2 |
| 20260510110436 | 64 | 87 | 0.0 | 0.0 | 0.00 | 0.00 | 0.00 | 36 | 1011.2 |
| 20260510105932 | 64 | 87 | 0.0 | 0.0 | 0.00 | 0.00 | 0.00 | 35 | 1011.3 |
| 20260510105427 | 64 | 86 | 0.0 | 0.0 | 0.00 | 0.00 | 0.00 | 36 | 1011.4 |
| 20260510104922 | 64 | 85 | 0.0 | 0.0 | 0.00 | 0.00 | 0.00 | 35 | 1011.2 |
| 20260510104420 | 65 | 85 | 0.0 | 1.0 | 0.00 | 0.00 | 0.00 | 35 | 1011.3 |
| 20260510103916 | 64 | 85 | 0.0 | 0.0 | 0.00 | 0.00 | 0.00 | 35 | 1011.4 |
| 20260510103414 | 64 | 85 | 1.0 | 1.0 | 0.00 | 0.00 | 0.00 | 35 | 1011.3 |
| 20260510102908 | 64 | 85 | 0.0 | 0.0 | 0.00 | 0.00 | 0.00 | 36 | 1011.5 |
| 20260510102404 | 64 | 85 | 0.0 | 0.0 | 0.00 | 0.00 | 0.00 | 36 | 1011.5 |
| 20260510101902 | 65 | 85 | 0.0 | 0.0 | 0.00 | 0.00 | 0.00 | 34 | 1011.2 |
| 20260510101400 | 65 | 85 | 0.0 | 0.0 | 0.00 | 0.00 | 0.00 | 34 | 1011.3 |
| 20260510100856 | 66 | 85 | 0.0 | 0.0 | 0.00 | 0.00 | 0.00 | 33 | 1011.2 |
| 20260510100354 | 66 | 85 | 0.0 | 0.0 | 0.00 | 0.00 | 0.00 | 32 | 1011.2 |
| 20260510095850 | 66 | 85 | 0.0 | 0.0 | 0.00 | 0.00 | 0.00 | 32 | 1011.2 |
| 20260510095344 | 66 | 85 | 0.0 | 0.0 | 0.00 | 0.00 | 0.00 | 32 | 1010.9 |
| 20260510094844 | 67 | 84 | 0.0 | 0.0 | 0.00 | 0.00 | 0.00 | 31 | 1011.1 |
| 20260510094340 | 67 | 84 | 0.0 | 0.0 | 0.00 | 0.00 | 0.00 | 31 | 1010.9 |
| 20260510093836 | 67 | 83 | 0.0 | 0.0 | 0.00 | 0.00 | 0.00 | 31 | 1011.0 |
| 20260510093332 | 68 | 83 | 0.0 | 0.0 | 0.00 | 0.00 | 0.00 | 30 | 1011.1 |
| 20260510092828 | 67 | 91 | 0.0 | 0.0 | 0.00 | 0.00 | 0.00 | 30 | 1010.9 |
| 20260510092324 | 67 | 90 | 0.0 | 0.0 | 0.00 | 0.00 | 0.00 | 30 | 1011.0 |
| 20260510091820 | 67 | 68 | 0.0 | 0.0 | 0.00 | 0.00 | 0.00 | 31 | 1011.0 |
| 20260510091318 | 68 | 65 | 0.0 | 0.0 | 0.00 | 0.00 | 0.00 | 31 | 1011.0 |
| 20260510090814 | 68 | 65 | 0.0 | 0.0 | 0.00 | 0.00 | 0.00 | 30 | 1010.7 |
| 20260510090311 | 68 | 65 | 0.0 | 0.0 | 0.00 | 0.00 | 0.00 | 29 | 1010.7 |
| 20260510085807 | 69 | 64 | 0.0 | 0.0 | 0.00 | 0.00 | 0.00 | 29 | 1011.2 |
| 20260510085301 | 69 | 87 | 1.0 | 1.0 | 0.00 | 0.00 | 0.00 | 30 | 1010.9 |
| 20260510084757 | 70 | 94 | 0.0 | 0.0 | 0.00 | 0.00 | 0.00 | 28 | 1011.1 |
| 20260510084254 | 70 | 96 | 0.0 | 0.0 | 0.00 | 0.00 | 0.00 | 28 | 1011.0 |
| 20260510083751 | 70 | 96 | 0.0 | 0.0 | 0.00 | 0.00 | 0.00 | 27 | 1010.6 |
| 20260510083248 | 71 | 96 | 0.0 | 0.0 | 0.00 | 0.00 | 0.00 | 27 | 1011.1 |
| 20260510082743 | 71 | 96 | 0.0 | 0.0 | 0.00 | 0.00 | 0.00 | 25 | 1010.9 |
| 20260510082240 | 72 | 81 | 1.0 | 1.0 | 0.00 | 0.00 | 0.00 | 25 | 1010.7 |
| 20260510081739 | 72 | 70 | 1.0 | 1.0 | 0.00 | 0.00 | 0.00 | 25 | 1010.6 |
| 20260510081236 | 73 | 70 | 1.0 | 0.0 | 0.00 | 0.00 | 0.00 | 24 | 1010.7 |
| 20260510080731 | 73 | 86 | 2.0 | 2.0 | 0.00 | 0.00 | 0.00 | 23 | 1011.1 |
| 20260510080227 | 72 | 140 | 0.0 | 0.0 | 0.00 | 0.00 | 0.00 | 24 | 1011.0 |
| 20260510075723 | 72 | 141 | 0.0 | 0.0 | 0.00 | 0.00 | 0.00 | 25 | 1010.9 |
| 20260510075221 | 72 | 143 | 1.0 | 0.0 | 0.00 | 0.00 | 0.00 | 25 | 1011.1 |
| 20260510074718 | 72 | 56 | 0.0 | 0.0 | 0.00 | 0.00 | 0.00 | 25 | 1010.7 |
| 20260510074214 | 73 | 56 | 0.0 | 0.0 | 0.00 | 0.00 | 0.00 | 24 | 1010.7 |
| 20260510073711 | 73 | 54 | 0.0 | 0.0 | 0.00 | 0.00 | 0.00 | 24 | 1011.2 |
| 20260510073207 | 73 | 48 | 0.0 | 0.0 | 0.00 | 0.00 | 0.00 | 22 | 1011.0 |
| 20260510072703 | 74 | 293 | 0.0 | 0.0 | 0.00 | 0.00 | 0.00 | 23 | 1011.1 |
| 20260510072159 | 73 | 293 | 1.0 | 1.0 | 0.00 | 0.00 | 0.00 | 25 | 1011.1 |
| 20260510071656 | 73 | 293 | 0.0 | 0.0 | 0.00 | 0.00 | 0.00 | 24 | 1011.1 |
| 20260510071153 | 74 | 293 | 0.0 | 0.0 | 0.00 | 0.00 | 0.00 | 25 | 1011.0 |
| 20260510070650 | 74 | 293 | 0.0 | 0.0 | 0.00 | 0.00 | 0.00 | 24 | 1011.1 |
| 20260510070148 | 74 | 293 | 0.0 | 0.0 | 0.00 | 0.00 | 0.00 | 23 | 1011.0 |
| 20260510065643 | 75 | 293 | 0.0 | 0.0 | 0.00 | 0.00 | 0.00 | 21 | 1011.0 |
| 20260510065139 | 74 | 293 | 0.0 | 0.0 | 0.00 | 0.00 | 0.00 | 21 | 1010.7 |
| 20260510064636 | 74 | 293 | 0.0 | 0.0 | 0.00 | 0.00 | 0.00 | 23 | 1011.1 |
| 20260510064133 | 75 | 293 | 0.0 | 0.0 | 0.00 | 0.00 | 0.00 | 22 | 1010.9 |
| 20260510063630 | 76 | 293 | 0.0 | 0.0 | 0.00 | 0.00 | 0.00 | 21 | 1010.7 |
| 20260510063127 | 77 | 293 | 0.0 | 0.0 | 0.00 | 0.00 | 0.00 | 20 | 1010.7 |
| 20260510062622 | 78 | 293 | 0.0 | 0.0 | 0.00 | 0.00 | 0.00 | 20 | 1010.5 |
| 20260510062118 | 79 | 293 | 0.0 | 0.0 | 0.00 | 0.00 | 0.00 | 18 | 1010.6 |
| 20260510061614 | 79 | 293 | 0.0 | 0.0 | 0.00 | 0.00 | 0.00 | 17 | 1010.3 |
| 20260510061112 | 79 | 281 | 2.0 | 2.0 | 0.00 | 0.00 | 0.00 | 17 | 1010.4 |
| 20260510060608 | 78 | 319 | 0.0 | 0.0 | 0.00 | 0.00 | 0.00 | 18 | 1010.2 |
| 20260510060105 | 76 | 276 | 1.0 | 1.0 | 0.00 | 0.00 | 0.00 | 19 | 1010.4 |
| 20260510055600 | 74 | 260 | 2.0 | 2.0 | 0.00 | 0.00 | 0.00 | 22 | 1010.1 |
| 20260510055059 | 73 | 6 | 0.0 | 0.0 | 0.00 | 0.00 | 0.00 | 26 | 1010.1 |
| 20260510054554 | 73 | 6 | 0.0 | 0.0 | 0.00 | 0.00 | 0.00 | 25 | 1010.1 |
| 20260510054050 | 73 | 6 | 0.0 | 0.0 | 0.00 | 0.00 | 0.00 | 27 | 1010.0 |
| 20260510053549 | 73 | 6 | 0.0 | 0.0 | 0.00 | 0.00 | 0.00 | 26 | 1009.6 |
| 20260510053047 | 74 | 6 | 0.0 | 0.0 | 0.00 | 0.00 | 0.00 | 26 | 1009.7 |
| 20260510052542 | 75 | 6 | 0.0 | 0.0 | 0.00 | 0.00 | 0.00 | 25 | 1009.6 |
| 20260510052039 | 75 | 6 | 0.0 | 0.0 | 0.00 | 0.00 | 0.00 | 25 | 1009.7 |
| 20260510051534 | 75 | 6 | 0.0 | 0.0 | 0.00 | 0.00 | 0.00 | 23 | 1009.6 |
| 20260510051031 | 76 | 6 | 0.0 | 0.0 | 0.00 | 0.00 | 0.00 | 22 | 1009.9 |
| 20260510050528 | 76 | 6 | 0.0 | 0.0 | 0.00 | 0.00 | 0.00 | 22 | 1009.8 |
| 20260510050026 | 77 | 6 | 0.0 | 0.0 | 0.00 | 0.00 | 0.00 | 22 | 1009.5 |
| 20260510045523 | 77 | 6 | 0.0 | 0.0 | 0.00 | 0.00 | 0.00 | 22 | 1009.3 |
| 20260510045018 | 78 | 6 | 0.0 | 0.0 | 0.00 | 0.00 | 0.00 | 21 | 1009.3 |
| 20260510044515 | 77 | 6 | 0.0 | 0.0 | 0.00 | 0.00 | 0.00 | 20 | 1009.5 |
| 20260510044013 | 77 | 6 | 0.0 | 0.0 | 0.00 | 0.00 | 0.00 | 22 | 1009.3 |
| 20260510043508 | 77 | 6 | 0.0 | 0.0 | 0.00 | 0.00 | 0.00 | 23 | 1009.2 |
| 20260510043003 | 78 | 6 | 0.0 | 0.0 | 0.00 | 0.00 | 0.00 | 22 | 1009.3 |
| 20260510042457 | 78 | 6 | 0.0 | 0.0 | 0.00 | 0.00 | 0.00 | 22 | 1009.1 |
| 20260510041953 | 78 | 6 | 0.0 | 0.0 | 0.00 | 0.00 | 0.00 | 22 | 1009.3 |
| 20260510041450 | 78 | 6 | 0.0 | 0.0 | 0.00 | 0.00 | 0.00 | 22 | 1009.1 |
| 20260510040948 | 78 | 6 | 0.0 | 0.0 | 0.00 | 0.00 | 0.00 | 22 | 1009.0 |
| 20260510040444 | 78 | 6 | 1.0 | 1.0 | 0.00 | 0.00 | 0.00 | 20 | 1009.0 |
| 20260510035940 | 78 | 6 | 0.0 | 0.0 | 0.00 | 0.00 | 0.00 | 21 | 1008.9 |
| 20260510035437 | 79 | 6 | 0.0 | 0.0 | 0.00 | 0.00 | 0.00 | 20 | 1009.0 |
| 20260510034936 | 79 | 6 | 0.0 | 0.0 | 0.00 | 0.00 | 0.00 | 20 | 1008.7 |
| 20260510034436 | 79 | 6 | 0.0 | 0.0 | 0.00 | 0.00 | 0.00 | 20 | 1008.5 |
| 20260510033931 | 80 | 6 | 0.0 | 0.0 | 0.00 | 0.00 | 0.00 | 20 | 1008.6 |
| 20260510033427 | 80 | 6 | 0.0 | 0.0 | 0.00 | 0.00 | 0.00 | 19 | 1008.4 |
| 20260510032925 | 80 | 5 | 1.0 | 1.0 | 0.00 | 0.00 | 0.00 | 19 | 1008.4 |
| 20260510032421 | 80 | 6 | 0.0 | 0.0 | 0.00 | 0.00 | 0.00 | 19 | 1008.4 |
| 20260510031917 | 81 | 5 | 0.0 | 0.0 | 0.00 | 0.00 | 0.00 | 19 | 1008.5 |
| 20260510031412 | 81 | 5 | 0.0 | 0.0 | 0.00 | 0.00 | 0.00 | 18 | 1008.4 |
| 20260510030907 | 81 | 5 | 0.0 | 0.0 | 0.00 | 0.00 | 0.00 | 17 | 1008.1 |
| 20260510030403 | 82 | 5 | 0.0 | 0.0 | 0.00 | 0.00 | 0.00 | 16 | 1007.9 |
| 20260510025901 | 82 | 5 | 0.0 | 0.0 | 0.00 | 0.00 | 0.00 | 16 | 1008.1 |
| 20260510025359 | 83 | 5 | 0.0 | 0.0 | 0.00 | 0.00 | 0.00 | 16 | 1007.9 |
| 20260510024855 | 84 | 5 | 0.0 | 0.0 | 0.00 | 0.00 | 0.00 | 15 | 1008.1 |
| 20260510024352 | 84 | 5 | 0.0 | 0.0 | 0.00 | 0.00 | 0.00 | 15 | 1007.9 |
| 20260510023848 | 85 | 5 | 0.0 | 0.0 | 0.00 | 0.00 | 0.00 | 14 | 1008.1 |
| 20260510023344 | 86 | 5 | 0.0 | 0.0 | 0.00 | 0.00 | 0.00 | 13 | 1007.7 |
| 20260510022842 | 87 | 5 | 0.0 | 0.0 | 0.00 | 0.00 | 0.00 | 13 | 1007.9 |
| 20260510022341 | 88 | 3 | 0.0 | 0.0 | 0.00 | 0.00 | 0.00 | 13 | 1007.6 |
| 20260510021840 | 89 | 3 | 0.0 | 0.0 | 0.00 | 0.00 | 0.00 | 12 | 1007.7 |
| 20260510021339 | 90 | 3 | 0.0 | 0.0 | 0.00 | 0.00 | 0.00 | 11 | 1007.5 |
| 20260510020834 | 91 | 339 | 1.0 | 1.0 | 0.00 | 0.00 | 0.00 | 11 | 1007.6 |
| 20260510020329 | 91 | 7 | 1.0 | 1.0 | 0.00 | 0.00 | 0.00 | 11 | 1007.6 |
| 20260510015825 | 92 | 304 | 2.0 | 3.0 | 0.00 | 0.00 | 0.00 | 11 | 1007.5 |
| 20260510015321 | 93 | 7 | 2.0 | 2.0 | 0.00 | 0.00 | 0.00 | 10 | 1007.6 |
| 20260510014816 | 94 | 8 | 0.0 | 0.0 | 0.00 | 0.00 | 0.00 | 10 | 1007.4 |
| 20260510014314 | 94 | 306 | 3.0 | 3.0 | 0.00 | 0.00 | 0.00 | 10 | 1007.4 |
| 20260510013809 | 95 | 355 | 2.0 | 2.0 | 0.00 | 0.00 | 0.00 | 10 | 1007.3 |
| 20260510013305 | 95 | 354 | 2.0 | 2.0 | 0.00 | 0.00 | 0.00 | 10 | 1007.6 |
| 20260510012800 | 95 | 346 | 2.0 | 2.0 | 0.00 | 0.00 | 0.00 | 10 | 1007.6 |
| 20260510012255 | 96 | 8 | 2.0 | 3.0 | 0.00 | 0.00 | 0.00 | 10 | 1007.3 |
| 20260510011755 | 96 | 292 | 2.0 | 2.0 | 0.00 | 0.00 | 0.00 | 10 | 1007.3 |
| 20260510011251 | 96 | 321 | 1.0 | 1.0 | 0.00 | 0.00 | 0.00 | 10 | 1007.4 |
| 20260510010748 | 96 | 4 | 2.0 | 2.0 | 0.00 | 0.00 | 0.00 | 10 | 1007.2 |
| 20260510010244 | 96 | 351 | 2.0 | 2.0 | 0.00 | 0.00 | 0.00 | 10 | 1007.4 |
| 20260510005742 | 97 | 313 | 5.0 | 7.0 | 0.00 | 0.00 | 0.00 | 10 | 1007.3 |
| 20260510005237 | 98 | 337 | 2.0 | 2.0 | 0.00 | 0.00 | 0.00 | 10 | 1007.5 |
| 20260510004736 | 98 | 328 | 1.0 | 2.0 | 0.00 | 0.00 | 0.00 | 10 | 1007.2 |
| 20260510004233 | 98 | 33 | 3.0 | 3.0 | 0.00 | 0.00 | 0.00 | 10 | 1007.3 |
| 20260510003730 | 98 | 330 | 2.0 | 3.0 | 0.00 | 0.00 | 0.00 | 10 | 1007.4 |
| 20260510003227 | 98 | 294 | 1.0 | 1.0 | 0.00 | 0.00 | 0.00 | 10 | 1007.4 |
| 20260510002725 | 98 | 328 | 3.0 | 5.0 | 0.00 | 0.00 | 0.00 | 10 | 1007.7 |
| 20260510002223 | 97 | 327 | 3.0 | 5.0 | 0.00 | 0.00 | 0.00 | 10 | 1007.3 |
| 20260510001720 | 98 | 303 | 3.0 | 3.0 | 0.00 | 0.00 | 0.00 | 10 | 1007.5 |
| 20260510001218 | 99 | 287 | 1.0 | 1.0 | 0.00 | 0.00 | 0.00 | 10 | 1007.5 |
| 20260510000714 | 98 | 293 | 1.0 | 3.0 | 0.00 | 0.00 | 0.00 | 10 | 1007.5 |
| 20260510000211 | 98 | 288 | 1.0 | 1.0 | 0.00 | 0.00 | 0.00 | 10 | 1007.6 |
| 20260509235708 | 98 | 357 | 6.0 | 8.0 | 0.00 | 0.00 | 0.00 | 10 | 1007.6 |
| 20260509235204 | 99 | 307 | 1.0 | 2.0 | 0.00 | 0.00 | 0.00 | 10 | 1007.5 |
| 20260509234701 | 99 | 324 | 4.0 | 6.0 | 0.00 | 0.00 | 0.00 | 10 | 1007.8 |
| 20260509234157 | 99 | 270 | 5.0 | 7.0 | 0.00 | 0.00 | 0.00 | 10 | 1007.8 |
| 20260509233655 | 98 | 246 | 2.0 | 2.0 | 0.00 | 0.00 | 0.00 | 10 | 1007.6 |
| 20260509233153 | 99 | 312 | 8.0 | 9.0 | 0.00 | 0.00 | 0.00 | 10 | 1007.7 |
| 20260509232649 | 99 | 299 | 1.0 | 1.0 | 0.00 | 0.00 | 0.00 | 10 | 1007.6 |
| 20260509232146 | 98 | 290 | 3.0 | 7.0 | 0.00 | 0.00 | 0.00 | 10 | 1007.7 |
| 20260509231643 | 98 | 21 | 2.0 | 3.0 | 0.00 | 0.00 | 0.00 | 10 | 1007.8 |
| 20260509231140 | 99 | 245 | 3.0 | 3.0 | 0.00 | 0.00 | 0.00 | 10 | 1007.9 |
| 20260509230637 | 99 | 313 | 4.0 | 5.0 | 0.00 | 0.00 | 0.00 | 10 | 1007.8 |
| 20260509230134 | 99 | 297 | 5.0 | 6.0 | 0.00 | 0.00 | 0.00 | 10 | 1008.2 |
| 20260509225630 | 100 | 333 | 1.0 | 1.0 | 0.00 | 0.00 | 0.00 | 10 | 1008.3 |
| 20260509225125 | 99 | 306 | 2.0 | 2.0 | 0.00 | 0.00 | 0.00 | 10 | 1008.2 |
| 20260509224620 | 99 | 296 | 2.0 | 2.0 | 0.00 | 0.00 | 0.00 | 10 | 1008.2 |
| 20260509224118 | 99 | 296 | 3.0 | 5.0 | 0.00 | 0.00 | 0.00 | 10 | 1008.4 |
| 20260509223615 | 100 | 291 | 5.0 | 6.0 | 0.00 | 0.00 | 0.00 | 10 | 1008.4 |
| 20260509223113 | 99 | 294 | 2.0 | 2.0 | 0.00 | 0.00 | 0.00 | 10 | 1008.2 |
| 20260509222608 | 100 | 280 | 3.0 | 5.0 | 0.00 | 0.00 | 0.00 | 10 | 1008.5 |
| 20260509222104 | 99 | 306 | 2.0 | 2.0 | 0.00 | 0.00 | 0.00 | 10 | 1008.7 |
| 20260509221600 | 99 | 10 | 4.0 | 5.0 | 0.00 | 0.00 | 0.00 | 10 | 1008.6 |
| 20260509221056 | 100 | 20 | 5.0 | 6.0 | 0.00 | 0.00 | 0.00 | 10 | 1008.7 |
| 20260509220552 | 100 | 299 | 4.0 | 6.0 | 0.00 | 0.00 | 0.00 | 10 | 1008.5 |
| 20260509220049 | 100 | 304 | 4.0 | 5.0 | 0.00 | 0.00 | 0.00 | 10 | 1008.6 |
| 20260509215544 | 100 | 294 | 5.0 | 7.0 | 0.00 | 0.00 | 0.00 | 10 | 1008.7 |
| 20260509215042 | 100 | 33 | 0.0 | 0.0 | 0.00 | 0.00 | 0.00 | 10 | 1009.0 |
| 20260509214539 | 99 | 231 | 1.0 | 1.0 | 0.00 | 0.00 | 0.00 | 10 | 1008.9 |
| 20260509214036 | 99 | 286 | 1.0 | 1.0 | 0.00 | 0.00 | 0.00 | 10 | 1009.2 |
| 20260509213532 | 98 | 307 | 5.0 | 6.0 | 0.00 | 0.00 | 0.00 | 10 | 1009.2 |
| 20260509213029 | 98 | 295 | 4.0 | 6.0 | 0.00 | 0.00 | 0.00 | 10 | 1009.2 |
| 20260509212526 | 99 | 260 | 3.0 | 3.0 | 0.00 | 0.00 | 0.00 | 10 | 1009.2 |
| 20260509212023 | 99 | 308 | 2.0 | 3.0 | 0.00 | 0.00 | 0.00 | 10 | 1009.2 |
| 20260509211518 | 98 | 333 | 3.0 | 5.0 | 0.00 | 0.00 | 0.00 | 10 | 1009.6 |
| 20260509211016 | 99 | 307 | 3.0 | 3.0 | 0.00 | 0.00 | 0.00 | 10 | 1009.6 |
| 20260509210512 | 99 | 253 | 3.0 | 5.0 | 0.00 | 0.00 | 0.00 | 10 | 1009.6 |
| 20260509210008 | 98 | 305 | 2.0 | 3.0 | 0.00 | 0.00 | 0.00 | 10 | 1009.7 |
| 20260509205503 | 98 | 312 | 3.0 | 2.0 | 0.00 | 0.00 | 0.00 | 10 | 1009.9 |
| 20260509204958 | 97 | 13 | 2.0 | 2.0 | 0.00 | 0.00 | 0.00 | 10 | 1009.8 |
| 20260509204455 | 97 | 297 | 2.0 | 3.0 | 0.00 | 0.00 | 0.00 | 10 | 1009.9 |
| 20260509203951 | 98 | 325 | 6.0 | 8.0 | 0.00 | 0.00 | 0.00 | 10 | 1010.1 |
| 20260509203447 | 98 | 256 | 4.0 | 5.0 | 0.00 | 0.00 | 0.00 | 10 | 1010.0 |
| 20260509202945 | 98 | 283 | 2.0 | 3.0 | 0.00 | 0.00 | 0.00 | 11 | 1010.1 |
| 20260509202441 | 98 | 308 | 3.0 | 3.0 | 0.00 | 0.00 | 0.00 | 10 | 1010.0 |
| 20260509201936 | 97 | 303 | 4.0 | 5.0 | 0.00 | 0.00 | 0.00 | 11 | 1010.0 |
| 20260509201431 | 97 | 312 | 4.0 | 10.0 | 0.00 | 0.00 | 0.00 | 11 | 1010.2 |
| 20260509200929 | 97 | 287 | 6.0 | 8.0 | 0.00 | 0.00 | 0.00 | 10 | 1010.3 |
| 20260509200428 | 97 | 10 | 5.0 | 8.0 | 0.00 | 0.00 | 0.00 | 10 | 1010.6 |
| 20260509195926 | 97 | 326 | 5.0 | 7.0 | 0.00 | 0.00 | 0.00 | 11 | 1010.5 |
| 20260509195421 | 97 | 355 | 4.0 | 7.0 | 0.00 | 0.00 | 0.00 | 11 | 1010.6 |
| 20260509194920 | 97 | 313 | 2.0 | 2.0 | 0.00 | 0.00 | 0.00 | 11 | 1010.7 |
| 20260509194417 | 96 | 291 | 5.0 | 7.0 | 0.00 | 0.00 | 0.00 | 11 | 1010.7 |
| 20260509193914 | 97 | 290 | 5.0 | 6.0 | 0.00 | 0.00 | 0.00 | 11 | 1010.6 |
| 20260509193413 | 97 | 322 | 3.0 | 3.0 | 0.00 | 0.00 | 0.00 | 11 | 1010.9 |
| 20260509192910 | 96 | 298 | 3.0 | 2.0 | 0.00 | 0.00 | 0.00 | 12 | 1010.7 |
| 20260509192406 | 96 | 325 | 5.0 | 6.0 | 0.00 | 0.00 | 0.00 | 12 | 1010.9 |
| 20260509191901 | 96 | 259 | 4.0 | 5.0 | 0.00 | 0.00 | 0.00 | 12 | 1011.1 |
| 20260509191357 | 95 | 326 | 4.0 | 6.0 | 0.00 | 0.00 | 0.00 | 12 | 1010.9 |
| 20260509190853 | 95 | 259 | 3.0 | 3.0 | 0.00 | 0.00 | 0.00 | 12 | 1011.1 |
| 20260509190350 | 95 | 286 | 4.0 | 6.0 | 0.00 | 0.00 | 0.00 | 12 | 1011.3 |
| 20260509185848 | 96 | 307 | 6.0 | 8.0 | 0.00 | 0.00 | 0.00 | 11 | 1011.2 |
| 20260509185344 | 96 | 305 | 3.0 | 3.0 | 0.00 | 0.00 | 0.00 | 11 | 1011.3 |
| 20260509184842 | 95 | 14 | 2.0 | 2.0 | 0.00 | 0.00 | 0.00 | 12 | 1011.4 |
| 20260509184338 | 95 | 268 | 3.0 | 6.0 | 0.00 | 0.00 | 0.00 | 12 | 1011.6 |
| 20260509183835 | 94 | 314 | 1.0 | 2.0 | 0.00 | 0.00 | 0.00 | 13 | 1011.4 |
| 20260509183330 | 94 | 211 | 1.0 | 1.0 | 0.00 | 0.00 | 0.00 | 13 | 1011.4 |
| 20260509182827 | 93 | 124 | 1.0 | 1.0 | 0.00 | 0.00 | 0.00 | 13 | 1011.7 |
| 20260509182324 | 93 | 246 | 0.0 | 0.0 | 0.00 | 0.00 | 0.00 | 14 | 1011.8 |
| 20260509181821 | 93 | 357 | 1.0 | 1.0 | 0.00 | 0.00 | 0.00 | 15 | 1012.0 |
| 20260509181318 | 92 | 324 | 1.0 | 1.0 | 0.00 | 0.00 | 0.00 | 15 | 1012.2 |
| 20260509180815 | 92 | 297 | 3.0 | 2.0 | 0.00 | 0.00 | 0.00 | 15 | 1012.2 |
| 20260509180312 | 92 | 2 | 2.0 | 3.0 | 0.00 | 0.00 | 0.00 | 15 | 1012.1 |
| 20260509175808 | 91 | 25 | 0.0 | 0.0 | 0.00 | 0.00 | 0.00 | 15 | 1012.5 |
| 20260509175306 | 90 | 256 | 1.0 | 1.0 | 0.00 | 0.00 | 0.00 | 16 | 1012.4 |
| 20260509174801 | 91 | 192 | 1.0 | 1.0 | 0.00 | 0.00 | 0.00 | 16 | 1012.2 |
| 20260509174256 | 92 | 203 | 2.0 | 2.0 | 0.00 | 0.00 | 0.00 | 16 | 1012.5 |
| 20260509173752 | 91 | 331 | 1.0 | 1.0 | 0.00 | 0.00 | 0.00 | 16 | 1012.5 |
| 20260509173248 | 90 | 197 | 2.0 | 2.0 | 0.00 | 0.00 | 0.00 | 16 | 1012.5 |
| 20260509172744 | 90 | 168 | 0.0 | 1.0 | 0.00 | 0.00 | 0.00 | 17 | 1012.5 |
| 20260509172241 | 89 | 35 | 1.0 | 1.0 | 0.00 | 0.00 | 0.00 | 17 | 1012.5 |
| 20260509171736 | 89 | 20 | 1.0 | 1.0 | 0.00 | 0.00 | 0.00 | 18 | 1012.6 |
| 20260509171233 | 89 | 245 | 4.0 | 6.0 | 0.00 | 0.00 | 0.00 | 16 | 1012.8 |
| 20260509170730 | 90 | 1 | 3.0 | 2.0 | 0.00 | 0.00 | 0.00 | 16 | 1012.5 |
| 20260509170226 | 90 | 313 | 1.0 | 1.0 | 0.00 | 0.00 | 0.00 | 17 | 1012.7 |
| 20260509165724 | 88 | 223 | 1.0 | 1.0 | 0.00 | 0.00 | 0.00 | 17 | 1012.5 |
| 20260509165219 | 89 | 346 | 1.0 | 1.0 | 0.00 | 0.00 | 0.00 | 17 | 1012.6 |
| 20260509164716 | 88 | 67 | 0.0 | 0.0 | 0.00 | 0.00 | 0.00 | 17 | 1012.6 |
| 20260509164211 | 87 | 233 | 0.0 | 0.0 | 0.00 | 0.00 | 0.00 | 17 | 1012.6 |
| 20260509163709 | 88 | 149 | 1.0 | 1.0 | 0.00 | 0.00 | 0.00 | 17 | 1012.7 |
| 20260509163206 | 87 | 72 | 0.0 | 0.0 | 0.00 | 0.00 | 0.00 | 19 | 1012.6 |
| 20260509162703 | 87 | 105 | 1.0 | 1.0 | 0.00 | 0.00 | 0.00 | 18 | 1012.7 |
| 20260509162159 | 86 | 225 | 1.0 | 1.0 | 0.00 | 0.00 | 0.00 | 18 | 1012.7 |
| 20260509161654 | 87 | 184 | 1.0 | 1.0 | 0.00 | 0.00 | 0.00 | 18 | 1012.7 |
| 20260509161150 | 86 | 226 | 0.0 | 0.0 | 0.00 | 0.00 | 0.00 | 19 | 1012.7 |
| 20260509160646 | 86 | 185 | 1.0 | 2.0 | 0.00 | 0.00 | 0.00 | 19 | 1012.7 |
| 20260509160141 | 85 | 264 | 2.0 | 2.0 | 0.00 | 0.00 | 0.00 | 20 | 1012.9 |
| 20260509155638 | 84 | 77 | 0.0 | 0.0 | 0.00 | 0.00 | 0.00 | 20 | 1012.7 |
| 20260509155134 | 83 | 129 | 2.0 | 2.0 | 0.00 | 0.00 | 0.00 | 20 | 1012.9 |
| 20260509154630 | 83 | 200 | 1.0 | 2.0 | 0.00 | 0.00 | 0.00 | 20 | 1012.8 |
| 20260509154127 | 83 | 244 | 2.0 | 2.0 | 0.00 | 0.00 | 0.00 | 20 | 1012.8 |
| 20260509153624 | 83 | 137 | 0.0 | 0.0 | 0.00 | 0.00 | 0.00 | 20 | 1012.9 |
| 20260509153121 | 83 | 178 | 1.0 | 1.0 | 0.00 | 0.00 | 0.00 | 20 | 1013.0 |
| 20260509152617 | 83 | 113 | 1.0 | 1.0 | 0.00 | 0.00 | 0.00 | 20 | 1012.8 |
| 20260509152114 | 82 | 105 | 0.0 | 0.0 | 0.00 | 0.00 | 0.00 | 24 | 1013.0 |
| 20260509151610 | 82 | 102 | 1.0 | 1.0 | 0.00 | 0.00 | 0.00 | 26 | 1012.9 |
| 20260509151109 | 81 | 74 | 0.0 | 0.0 | 0.00 | 0.00 | 0.00 | 28 | 1012.8 |
| 20260509150606 | 79 | 74 | 0.0 | 0.0 | 0.00 | 0.00 | 0.00 | 29 | 1012.9 |
| 20260509150104 | 78 | 71 | 0.0 | 1.0 | 0.00 | 0.00 | 0.00 | 30 | 1013.0 |
| 20260509145559 | 77 | 84 | 0.0 | 1.0 | 0.00 | 0.00 | 0.00 | 30 | 1013.0 |
| 20260509145055 | 76 | 73 | 0.0 | 0.0 | 0.00 | 0.00 | 0.00 | 31 | 1012.9 |
| 20260509144552 | 77 | 68 | 0.0 | 1.0 | 0.00 | 0.00 | 0.00 | 32 | 1012.9 |
| 20260509144049 | 76 | 78 | 0.0 | 1.0 | 0.00 | 0.00 | 0.00 | 32 | 1013.0 |
| 20260509143546 | 74 | 81 | 0.0 | 0.0 | 0.00 | 0.00 | 0.00 | 33 | 1012.9 |
| 20260509143044 | 73 | 82 | 1.0 | 1.0 | 0.00 | 0.00 | 0.00 | 34 | 1012.9 |
| 20260509142539 | 73 | 80 | 0.0 | 0.0 | 0.00 | 0.00 | 0.00 | 35 | 1013.0 |
| 20260509142035 | 73 | 63 | 1.0 | 1.0 | 0.00 | 0.00 | 0.00 | 34 | 1012.8 |
| 20260509141531 | 73 | 78 | 1.0 | 1.0 | 0.00 | 0.00 | 0.00 | 33 | 1012.8 |
| 20260509141028 | 71 | 38 | 0.0 | 0.0 | 0.00 | 0.00 | 0.00 | 35 | 1012.8 |
| 20260509140525 | 71 | 132 | 1.0 | 1.0 | 0.00 | 0.00 | 0.00 | 35 | 1012.7 |
| 20260509140023 | 70 | 85 | 0.0 | 0.0 | 0.00 | 0.00 | 0.00 | 37 | 1012.8 |
| 20260509135520 | 69 | 82 | 2.0 | 2.0 | 0.00 | 0.00 | 0.00 | 35 | 1012.7 |